This is the latest recevied weather packets stored in our database for station/object ON7SD-5. If no packets are shown the sender has not sent any weather packets the latest 10 day(s).
| Time | Temp. | Humidity | Pressure | Rain* | Wind** | Luminosity | Snow |
|---|---|---|---|---|---|---|---|
| 1777294943 | 20.56° C | 32% | 1021.2 hPa | 0 mm | - | 761 W/m² | - |
| 1777294643 | 20.56° C | 32% | 1021.2 hPa | 0 mm | - | 772 W/m² | - |
| 1777294043 | 20.56° C | 31% | 1021.3 hPa | 0 mm | - | 733 W/m² | - |
| 1777293143 | 20.56° C | 30% | 1021.4 hPa | 0 mm | - | 585 W/m² | - |
| 1777292843 | 20.56° C | 31% | 1021.6 hPa | 0 mm | - | 552 W/m² | - |
| 1777292543 | 20.56° C | 30% | 1021.5 hPa | 0 mm | - | 541 W/m² | - |
| 1777292243 | 20.56° C | 33% | 1021.6 hPa | 0 mm | - | 552 W/m² | - |
| 1777291943 | 20° C | 33% | 1021.6 hPa | 0 mm | - | 599 W/m² | - |
| 1777291643 | 20° C | 32% | 1021.7 hPa | 0 mm | - | 666 W/m² | - |
| 1777289543 | 18.89° C | 34% | 1022.1 hPa | 0 mm | - | 803 W/m² | - |
| 1777289243 | 18.89° C | 33% | 1022.2 hPa | 0 mm | - | 795 W/m² | - |
| 1777288943 | 19.44° C | 32% | 1022.2 hPa | 0 mm | - | 795 W/m² | - |
| 1777288644 | 18.89° C | 34% | 1022.2 hPa | 0 mm | - | 784 W/m² | - |
| 1777288343 | 18.89° C | 33% | 1022.3 hPa | 0 mm | - | 795 W/m² | - |
| 1777288044 | 18.89° C | 35% | 1022.3 hPa | 0 mm | - | 793 W/m² | - |
| 1777287744 | 19.44° C | 37% | 1022.3 hPa | 0 mm | - | 772 W/m² | - |
| 1777287444 | 18.89° C | 37% | 1022.3 hPa | 0 mm | - | 782 W/m² | - |
| 1777286844 | 18.33° C | 39% | 1022.3 hPa | 0 mm | - | 773 W/m² | - |
| 1777286544 | 18.33° C | 36% | 1022.4 hPa | 0 mm | - | 770 W/m² | - |
| 1777286244 | 18.33° C | 38% | 1022.4 hPa | 0 mm | - | 770 W/m² | - |
| 1777285944 | 18.89° C | 39% | 1022.5 hPa | 0 mm | - | 772 W/m² | - |
| 1777285644 | 18.89° C | 38% | 1022.4 hPa | 0 mm | - | 770 W/m² | - |
| 1777285344 | 18.33° C | 39% | 1022.4 hPa | 0 mm | - | 786 W/m² | - |
| 1777285044 | 18.33° C | 38% | 1022.5 hPa | 0 mm | - | 772 W/m² | - |
| 1777284744 | 18.33° C | 40% | 1022.4 hPa | 0 mm | - | 747 W/m² | - |
* Rain latest hour (hover to see other rain measurements)
** Current wind speed in m/s (hover to see current wind gust speed)